Powrót do katalogu

SL-14 R/B

AktywnyPO
NORAD 14373·ROCKET BODY·🇷🇺 Russia

Wystrzelony Sep 28, 1983 z Plesetsk Cosmodrome

Loading…

Następne Przeloty (najbliższe 24 godziny)

TLE

ŚwieżeSource: Space-Track

Epoka: Sep 14, 2026, 05:08 UTC

1 14373U 83099B   26257.21421949  .00000302  00000-0  31432-4 0  9993
2 14373  82.5412 325.5997 0018046 230.3593 129.6032 14.86368690300621

Śledź SL-14 R/B w czasie rzeczywistym z AllMySat

Download on the App Store